📊 Raw Sensor Data
Showing records 42101 to 42125 of 84,994 total
| ID | Distance (ft) | Battery V | Battery A | Int Temp (°F) | Int Humid (%) | Ext Temp (°F) | Solar V | RSSI | SNR | Time Stamp |
|---|---|---|---|---|---|---|---|---|---|---|
| 42906 | 15.7 | 4.04 | 0 | 70 | 44 | 72 | 5.10 | -70 | 8 | 06/08/2025 09:30 AM |
| 42905 | 15.7 | 4.02 | 0 | 70 | 43 | 72 | 5.10 | -71 | 8 | 06/08/2025 09:15 AM |
| 42904 | 15.7 | 4.02 | 0 | 69 | 43 | 71 | 5.10 | -71 | 8 | 06/08/2025 09:00 AM |
| 42903 | 15.7 | 4.02 | 0 | 68 | 43 | 70 | 5.10 | -68 | 7 | 06/08/2025 08:45 AM |
| 42902 | 15.7 | 4.02 | 0 | 66 | 44 | 69 | 5.10 | -69 | 8 | 06/08/2025 08:30 AM |
| 42901 | 15.7 | 4.02 | 0 | 66 | 43 | 68 | 5.10 | -69 | 8 | 06/08/2025 08:15 AM |
| 42900 | 15.7 | 4.02 | 0 | 64 | 43 | 67 | 5.10 | -69 | 7 | 06/08/2025 08:00 AM |
| 42899 | 15.7 | 4.02 | 0 | 63 | 43 | 68 | 5.10 | -71 | 7 | 06/08/2025 07:45 AM |
| 42898 | 15.6 | 4.09 | 37 | 62 | 42 | 64 | 4.50 | -70 | 8 | 06/08/2025 07:30 AM |
| 42897 | 15.6 | 4.03 | 25 | 60 | 42 | 64 | 4.50 | -70 | 8 | 06/08/2025 07:15 AM |
| 42896 | 15.5 | 3.99 | -11 | 59 | 42 | 63 | 4.50 | -69 | 8 | 06/08/2025 07:00 AM |
| 42895 | 15.5 | 4.03 | 7 | 57 | 42 | 61 | 4.50 | -71 | 8 | 06/08/2025 06:45 AM |
| 42894 | 15.5 | 3.96 | 0 | 56 | 42 | 60 | 4.50 | -70 | 8 | 06/08/2025 06:30 AM |
| 42893 | 15.5 | 4.01 | 0 | 55 | 42 | 57 | 4.50 | -69 | 7 | 06/08/2025 06:15 AM |
| 42892 | 15.4 | 3.94 | -7 | 53 | 42 | 56 | 4.50 | -71 | 8 | 06/08/2025 06:00 AM |
| 42891 | 15.4 | 3.94 | -10 | 53 | 43 | 54 | 2.40 | -71 | 8 | 06/08/2025 05:45 AM |
| 42890 | 15.4 | 3.95 | -5 | 53 | 43 | 54 | 1.50 | -69 | 8 | 06/08/2025 05:30 AM |
| 42889 | 15.4 | 3.95 | -5 | 53 | 43 | 54 | 0.00 | -68 | 8 | 06/08/2025 05:15 AM |
| 42888 | 15.2 | 3.95 | -5 | 53 | 43 | 54 | 0.10 | -70 | 8 | 06/08/2025 05:00 AM |
| 42887 | 15.2 | 4.01 | -5 | 53 | 43 | 54 | 0.00 | -70 | 8 | 06/08/2025 04:45 AM |
| 42886 | 15.2 | 3.95 | -5 | 53 | 43 | 54 | 0.00 | -69 | 8 | 06/08/2025 04:30 AM |
| 42885 | 15.2 | 4.01 | -5 | 53 | 43 | 54 | 0.00 | -69 | 8 | 06/08/2025 04:15 AM |
| 42884 | 15.2 | 3.95 | -5 | 53 | 43 | 54 | 0.00 | -69 | 8 | 06/08/2025 04:00 AM |
| 42883 | 15.2 | 3.95 | -5 | 54 | 43 | 54 | 0.00 | -71 | 8 | 06/08/2025 03:45 AM |
| 42882 | 15.2 | 3.95 | -5 | 54 | 43 | 55 | 0.00 | -71 | 8 | 06/08/2025 03:30 AM |